Year,Month,Day,Hour,Minute,Value (Times are PST for temperature in C)
2017,06,22,00,00,12.30
2017,06,22,00,01,12.30
2017,06,22,00,02,12.40
2017,06,22,00,03,12.40
2017,06,22,00,04,12.50
2017,06,22,00,05,12.50
2017,06,22,00,06,12.60
2017,06,22,00,07,12.60
2017,06,22,00,08,12.60
2017,06,22,00,09,12.70
2017,06,22,00,10,12.70
2017,06,22,00,11,12.70
2017,06,22,00,12,12.70
2017,06,22,00,13,12.80
2017,06,22,00,14,12.80
2017,06,22,00,15,12.80
2017,06,22,00,16,12.80
2017,06,22,00,17,12.80
2017,06,22,00,18,12.80
2017,06,22,00,19,12.80
2017,06,22,00,20,12.80
2017,06,22,00,21,12.90
2017,06,22,00,22,12.90
2017,06,22,00,23,12.90
2017,06,22,00,24,12.90
2017,06,22,00,25,12.90
2017,06,22,00,26,12.90
2017,06,22,00,27,12.90
2017,06,22,00,28,12.90
2017,06,22,00,29,13.00
2017,06,22,00,30,13.00
2017,06,22,00,31,13.10
2017,06,22,00,32,13.10
2017,06,22,00,33,13.20
2017,06,22,00,34,13.20
2017,06,22,00,35,13.30
2017,06,22,00,36,13.30
2017,06,22,00,37,13.30
2017,06,22,00,38,13.30
2017,06,22,00,39,13.30
2017,06,22,00,40,13.30
2017,06,22,00,41,13.30
2017,06,22,00,42,13.30
2017,06,22,00,43,13.20
2017,06,22,00,44,13.20
2017,06,22,00,45,13.20
2017,06,22,00,46,13.20
2017,06,22,00,47,13.20
2017,06,22,00,48,13.20
2017,06,22,00,49,13.20
2017,06,22,00,50,13.10
2017,06,22,00,51,13.10
2017,06,22,00,52,13.00
2017,06,22,00,53,12.90
2017,06,22,00,54,12.90
2017,06,22,00,55,12.80
2017,06,22,00,56,12.80
2017,06,22,00,57,12.70
2017,06,22,00,58,12.70
2017,06,22,00,59,12.70
2017,06,22,01,00,12.70
2017,06,22,01,01,12.70
2017,06,22,01,02,12.60
2017,06,22,01,03,12.60
2017,06,22,01,04,12.50
2017,06,22,01,05,12.50
2017,06,22,01,06,12.40
2017,06,22,01,07,12.40
2017,06,22,01,08,12.40
2017,06,22,01,09,12.30
2017,06,22,01,10,12.30
2017,06,22,01,11,12.20
2017,06,22,01,12,12.20
2017,06,22,01,13,12.20
2017,06,22,01,14,12.20
2017,06,22,01,15,12.20
2017,06,22,01,16,12.20
2017,06,22,01,17,12.10
2017,06,22,01,18,12.00
2017,06,22,01,19,12.00
2017,06,22,01,20,11.90
2017,06,22,01,21,11.90
2017,06,22,01,22,11.90
2017,06,22,01,23,11.90
2017,06,22,01,24,11.90
2017,06,22,01,25,11.80
2017,06,22,01,26,11.80
2017,06,22,01,27,11.80
2017,06,22,01,28,11.80
2017,06,22,01,29,11.80
2017,06,22,01,30,11.80
2017,06,22,01,31,11.80
2017,06,22,01,32,11.90
2017,06,22,01,33,11.90
2017,06,22,01,34,12.00
2017,06,22,01,35,12.10
2017,06,22,01,36,12.10
2017,06,22,01,37,12.10
2017,06,22,01,38,12.10
2017,06,22,01,39,12.00
2017,06,22,01,40,12.00
2017,06,22,01,41,12.00
2017,06,22,01,42,12.10
2017,06,22,01,43,12.10
2017,06,22,01,44,12.10
2017,06,22,01,45,12.10
2017,06,22,01,46,12.20
2017,06,22,01,47,12.30
2017,06,22,01,48,12.30
2017,06,22,01,49,12.30
2017,06,22,01,50,12.30
2017,06,22,01,51,12.30
2017,06,22,01,52,12.40
2017,06,22,01,53,12.40
2017,06,22,01,54,12.50
2017,06,22,01,55,12.50
2017,06,22,01,56,12.60
2017,06,22,01,57,12.60
2017,06,22,01,58,12.60
2017,06,22,01,59,12.60
2017,06,22,02,00,12.70
2017,06,22,02,01,12.70
2017,06,22,02,02,12.70
2017,06,22,02,03,12.70
2017,06,22,02,04,12.70
2017,06,22,02,05,12.80
2017,06,22,02,06,12.80
2017,06,22,02,07,12.80
2017,06,22,02,08,12.80
2017,06,22,02,09,12.80
2017,06,22,02,10,12.80
2017,06,22,02,11,12.80
2017,06,22,02,12,12.80
2017,06,22,02,13,12.70
2017,06,22,02,14,12.70
2017,06,22,02,15,12.60
2017,06,22,02,16,12.60
2017,06,22,02,17,12.70
2017,06,22,02,18,12.70
2017,06,22,02,19,12.70
2017,06,22,02,20,12.70
2017,06,22,02,21,12.70
2017,06,22,02,22,12.70
2017,06,22,02,23,12.70
2017,06,22,02,24,12.60
2017,06,22,02,25,12.60
2017,06,22,02,26,12.60
2017,06,22,02,27,12.60
2017,06,22,02,28,12.50
2017,06,22,02,29,12.50
2017,06,22,02,30,12.50
2017,06,22,02,31,12.50
2017,06,22,02,32,12.50
2017,06,22,02,33,12.60
2017,06,22,02,34,12.60
2017,06,22,02,35,12.60
2017,06,22,02,36,12.70
2017,06,22,02,37,12.70
2017,06,22,02,38,12.70
2017,06,22,02,39,12.80
2017,06,22,02,40,12.80
2017,06,22,02,41,12.80
2017,06,22,02,42,12.80
2017,06,22,02,43,12.90
2017,06,22,02,44,12.90
2017,06,22,02,45,12.80
2017,06,22,02,46,12.80
2017,06,22,02,47,12.70
2017,06,22,02,48,12.70
2017,06,22,02,49,12.60
2017,06,22,02,50,12.60
2017,06,22,02,51,12.60
2017,06,22,02,52,12.60
2017,06,22,02,53,12.50
2017,06,22,02,54,12.50
2017,06,22,02,55,12.50
2017,06,22,02,56,12.40
2017,06,22,02,57,12.40
2017,06,22,02,58,12.40
2017,06,22,02,59,12.40
2017,06,22,03,00,12.40
2017,06,22,03,01,12.40
2017,06,22,03,02,12.40
2017,06,22,03,03,12.40
2017,06,22,03,04,12.40
2017,06,22,03,05,12.40
2017,06,22,03,06,12.40
2017,06,22,03,07,12.40
2017,06,22,03,08,12.50
2017,06,22,03,09,12.50
2017,06,22,03,10,12.50
2017,06,22,03,11,12.50
2017,06,22,03,12,12.60
2017,06,22,03,13,12.60
2017,06,22,03,14,12.60
2017,06,22,03,15,12.60
2017,06,22,03,16,12.60
2017,06,22,03,17,12.60
2017,06,22,03,18,12.60
2017,06,22,03,19,12.60
2017,06,22,03,20,12.60
2017,06,22,03,21,12.70
2017,06,22,03,22,12.70
2017,06,22,03,23,12.70
2017,06,22,03,24,12.80
2017,06,22,03,25,12.80
2017,06,22,03,26,12.80
2017,06,22,03,27,12.80
2017,06,22,03,28,12.80
2017,06,22,03,29,12.80
2017,06,22,03,30,12.80
2017,06,22,03,31,12.80
2017,06,22,03,32,12.80
2017,06,22,03,33,12.80
2017,06,22,03,34,12.80
2017,06,22,03,35,12.80
2017,06,22,03,36,12.90
2017,06,22,03,37,12.90
2017,06,22,03,38,12.90
2017,06,22,03,39,12.90
2017,06,22,03,40,12.90
2017,06,22,03,41,12.90
2017,06,22,03,42,12.90
2017,06,22,03,43,12.90
2017,06,22,03,44,12.90
2017,06,22,03,45,12.90
2017,06,22,03,46,12.90
2017,06,22,03,47,12.90
2017,06,22,03,48,13.00
2017,06,22,03,49,13.00
2017,06,22,03,50,13.10
2017,06,22,03,51,13.10
2017,06,22,03,52,13.20
2017,06,22,03,53,13.20
2017,06,22,03,54,13.20
2017,06,22,03,55,13.30
2017,06,22,03,56,13.30
2017,06,22,03,57,13.30
2017,06,22,03,58,13.40
2017,06,22,03,59,13.40
2017,06,22,04,00,13.40
2017,06,22,04,01,13.40
2017,06,22,04,02,13.40
2017,06,22,04,03,13.40
2017,06,22,04,04,13.40
2017,06,22,04,05,13.30
2017,06,22,04,06,13.30
2017,06,22,04,07,13.30
2017,06,22,04,08,13.30
2017,06,22,04,09,13.30
2017,06,22,04,10,13.30
2017,06,22,04,11,13.30
2017,06,22,04,12,13.30
2017,06,22,04,13,13.30
2017,06,22,04,14,13.30
2017,06,22,04,15,13.20
2017,06,22,04,16,13.20
2017,06,22,04,17,13.20
2017,06,22,04,18,13.10
2017,06,22,04,19,13.10
2017,06,22,04,20,13.10
2017,06,22,04,21,13.00
2017,06,22,04,22,13.00
2017,06,22,04,23,13.00
2017,06,22,04,24,13.00
2017,06,22,04,25,13.00
2017,06,22,04,26,13.00
2017,06,22,04,27,13.10
2017,06,22,04,28,13.10
2017,06,22,04,29,13.10
2017,06,22,04,30,13.10
2017,06,22,04,31,13.10
2017,06,22,04,32,13.10
2017,06,22,04,33,13.00
2017,06,22,04,34,13.00
2017,06,22,04,35,13.00
2017,06,22,04,36,13.00
2017,06,22,04,37,12.90
2017,06,22,04,38,12.90
2017,06,22,04,39,12.90
2017,06,22,04,40,12.80
2017,06,22,04,41,12.70
2017,06,22,04,42,12.70
2017,06,22,04,43,12.60
2017,06,22,04,44,12.60
2017,06,22,04,45,12.50
2017,06,22,04,46,12.50
2017,06,22,04,47,12.40
2017,06,22,04,48,12.40
2017,06,22,04,49,12.40
2017,06,22,04,50,12.30
2017,06,22,04,51,12.30
2017,06,22,04,52,12.30
2017,06,22,04,53,12.30
2017,06,22,04,54,12.20
2017,06,22,04,55,12.20
2017,06,22,04,56,12.20
2017,06,22,04,57,12.30
2017,06,22,04,58,12.30
2017,06,22,04,59,12.30
2017,06,22,05,00,12.30
2017,06,22,05,01,12.30
2017,06,22,05,02,12.30
2017,06,22,05,03,12.30
2017,06,22,05,04,12.40
2017,06,22,05,05,12.40
2017,06,22,05,06,12.40
2017,06,22,05,07,12.40
2017,06,22,05,08,12.40
2017,06,22,05,09,12.40
2017,06,22,05,10,12.40
2017,06,22,05,11,12.40
2017,06,22,05,12,12.40
2017,06,22,05,13,12.40
2017,06,22,05,14,12.40
2017,06,22,05,15,12.40
2017,06,22,05,16,12.40
2017,06,22,05,17,12.40
2017,06,22,05,18,12.30
2017,06,22,05,19,12.30
2017,06,22,05,20,12.30
2017,06,22,05,21,12.30
2017,06,22,05,22,12.40
2017,06,22,05,23,12.40
2017,06,22,05,24,12.40
2017,06,22,05,25,12.40
2017,06,22,05,26,12.40
2017,06,22,05,27,12.40
2017,06,22,05,28,12.40
2017,06,22,05,29,12.50
2017,06,22,05,30,12.50
2017,06,22,05,31,12.50
2017,06,22,05,32,12.60
2017,06,22,05,33,12.60
2017,06,22,05,34,12.60
2017,06,22,05,35,12.60
2017,06,22,05,36,12.60
2017,06,22,05,37,12.60
2017,06,22,05,38,12.60
2017,06,22,05,39,12.60
2017,06,22,05,40,12.70
2017,06,22,05,41,12.70
2017,06,22,05,42,12.70
2017,06,22,05,43,12.70
2017,06,22,05,44,12.70
2017,06,22,05,45,12.70
2017,06,22,05,46,12.70
2017,06,22,05,47,12.70
2017,06,22,05,48,12.70
2017,06,22,05,49,12.70
2017,06,22,05,50,12.70
2017,06,22,05,51,12.70
2017,06,22,05,52,12.70
2017,06,22,05,53,12.70
2017,06,22,05,54,12.70
2017,06,22,05,55,12.70
2017,06,22,05,56,12.70
2017,06,22,05,57,12.70
2017,06,22,05,58,12.70
2017,06,22,05,59,12.70
2017,06,22,06,00,12.80
2017,06,22,06,01,12.80
2017,06,22,06,02,12.80
2017,06,22,06,03,12.80
2017,06,22,06,04,12.90
2017,06,22,06,05,12.90
2017,06,22,06,06,12.90
2017,06,22,06,07,12.90
2017,06,22,06,08,12.90
2017,06,22,06,09,13.00
2017,06,22,06,10,13.00
2017,06,22,06,11,13.00
2017,06,22,06,12,13.10
2017,06,22,06,13,13.10
2017,06,22,06,14,13.10
2017,06,22,06,15,13.20
2017,06,22,06,16,13.20
2017,06,22,06,17,13.30
2017,06,22,06,18,13.30
2017,06,22,06,19,13.30
2017,06,22,06,20,13.30
2017,06,22,06,21,13.40
2017,06,22,06,22,13.40
2017,06,22,06,23,13.50
2017,06,22,06,24,13.60
2017,06,22,06,25,13.60
2017,06,22,06,26,13.70
2017,06,22,06,27,13.70
2017,06,22,06,28,13.70
2017,06,22,06,29,13.70
2017,06,22,06,30,13.80
2017,06,22,06,31,13.80
2017,06,22,06,32,13.90
2017,06,22,06,33,13.90
2017,06,22,06,34,13.90
2017,06,22,06,35,13.90
2017,06,22,06,36,13.90
2017,06,22,06,37,13.90
2017,06,22,06,38,13.90
2017,06,22,06,39,13.80
2017,06,22,06,40,13.80
2017,06,22,06,41,13.80
2017,06,22,06,42,13.80
2017,06,22,06,43,13.90
2017,06,22,06,44,13.90
2017,06,22,06,45,13.90
2017,06,22,06,46,13.90
2017,06,22,06,47,13.90
2017,06,22,06,48,13.90
2017,06,22,06,49,13.90
2017,06,22,06,50,14.00
2017,06,22,06,51,14.00
2017,06,22,06,52,14.00
2017,06,22,06,53,14.00
2017,06,22,06,54,14.00
2017,06,22,06,55,14.00
2017,06,22,06,56,14.10
2017,06,22,06,57,14.00
2017,06,22,06,58,14.00
2017,06,22,06,59,14.00
2017,06,22,07,00,14.10
2017,06,22,07,01,14.00
2017,06,22,07,02,14.00
2017,06,22,07,03,14.00
2017,06,22,07,04,14.00
2017,06,22,07,05,14.00
2017,06,22,07,06,14.00
2017,06,22,07,07,14.00
2017,06,22,07,08,14.00
2017,06,22,07,09,14.10
2017,06,22,07,10,14.10
2017,06,22,07,11,14.10
2017,06,22,07,12,14.10
2017,06,22,07,13,14.10
2017,06,22,07,14,14.20
2017,06,22,07,15,14.20
2017,06,22,07,16,14.20
2017,06,22,07,17,14.30
2017,06,22,07,18,14.30
2017,06,22,07,19,14.30
2017,06,22,07,20,14.30
2017,06,22,07,21,14.30
2017,06,22,07,22,14.40
2017,06,22,07,23,14.40
2017,06,22,07,24,14.40
2017,06,22,07,25,14.50
2017,06,22,07,26,14.50
2017,06,22,07,27,14.50
2017,06,22,07,28,14.60
2017,06,22,07,29,14.60
2017,06,22,07,30,14.70
2017,06,22,07,31,14.70
2017,06,22,07,32,14.70
2017,06,22,07,33,14.70
2017,06,22,07,34,14.70
2017,06,22,07,35,14.70
2017,06,22,07,36,14.70
2017,06,22,07,37,14.70
2017,06,22,07,38,14.70
2017,06,22,07,39,14.60
2017,06,22,07,40,14.60
2017,06,22,07,41,14.70
2017,06,22,07,42,14.70
2017,06,22,07,43,14.70
2017,06,22,07,44,14.70
2017,06,22,07,45,14.70
2017,06,22,07,46,14.70
2017,06,22,07,47,14.70
2017,06,22,07,48,14.70
2017,06,22,07,49,14.60
2017,06,22,07,50,14.50
2017,06,22,07,51,14.50
2017,06,22,07,52,14.60
2017,06,22,07,53,14.60
2017,06,22,07,54,14.60
2017,06,22,07,55,14.70
2017,06,22,07,56,14.70
2017,06,22,07,57,14.70
2017,06,22,07,58,14.80
2017,06,22,07,59,14.80
2017,06,22,08,00,14.80
2017,06,22,08,01,14.90
2017,06,22,08,02,14.90
2017,06,22,08,03,14.90
2017,06,22,08,04,14.90
2017,06,22,08,05,14.90
2017,06,22,08,06,14.80
2017,06,22,08,07,14.80
2017,06,22,08,08,14.80
2017,06,22,08,09,14.70
2017,06,22,08,10,14.80
2017,06,22,08,11,14.80
2017,06,22,08,12,14.80
2017,06,22,08,13,14.80
2017,06,22,08,14,14.90
2017,06,22,08,15,15.00
2017,06,22,08,16,15.00
2017,06,22,08,17,15.10
2017,06,22,08,18,15.10
2017,06,22,08,19,15.10
2017,06,22,08,20,15.10
2017,06,22,08,21,15.20
2017,06,22,08,22,15.20
2017,06,22,08,23,15.20
2017,06,22,08,24,15.20
2017,06,22,08,25,15.20
2017,06,22,08,26,15.20
2017,06,22,08,27,15.20
2017,06,22,08,28,15.30
2017,06,22,08,29,15.40
2017,06,22,08,30,15.40
2017,06,22,08,31,15.50
2017,06,22,08,32,15.50
2017,06,22,08,33,15.60
2017,06,22,08,34,15.60
2017,06,22,08,35,15.60
2017,06,22,08,36,15.60
2017,06,22,08,37,15.60
2017,06,22,08,38,15.50
2017,06,22,08,39,15.40
2017,06,22,08,40,15.30
2017,06,22,08,41,15.20
2017,06,22,08,42,15.20
2017,06,22,08,43,15.20
2017,06,22,08,44,15.20
2017,06,22,08,45,15.30
2017,06,22,08,46,15.30
2017,06,22,08,47,15.30
2017,06,22,08,48,15.30
2017,06,22,08,49,15.40
2017,06,22,08,50,15.40
2017,06,22,08,51,15.40
2017,06,22,08,52,15.50
2017,06,22,08,53,15.60
2017,06,22,08,54,15.60
2017,06,22,08,55,15.60
2017,06,22,08,56,15.50
2017,06,22,08,57,15.40
2017,06,22,08,58,15.30
2017,06,22,08,59,15.20
2017,06,22,09,00,15.20
2017,06,22,09,01,15.20
2017,06,22,09,02,15.30
2017,06,22,09,03,15.30
2017,06,22,09,04,15.30
2017,06,22,09,05,15.30
2017,06,22,09,06,15.30
2017,06,22,09,07,15.30
2017,06,22,09,08,15.40
2017,06,22,09,09,15.40
2017,06,22,09,10,15.50
2017,06,22,09,11,15.50
2017,06,22,09,12,15.50
2017,06,22,09,13,15.50
2017,06,22,09,14,15.40
2017,06,22,09,15,15.40
2017,06,22,09,16,15.50
2017,06,22,09,17,15.50
2017,06,22,09,18,15.50
2017,06,22,09,19,15.50
2017,06,22,09,20,15.60
2017,06,22,09,21,15.80
2017,06,22,09,22,15.90
2017,06,22,09,23,15.80
2017,06,22,09,24,15.80
2017,06,22,09,25,15.80
2017,06,22,09,26,15.80
2017,06,22,09,27,15.80
2017,06,22,09,28,15.80
2017,06,22,09,29,15.80
2017,06,22,09,30,15.80
2017,06,22,09,31,15.60
2017,06,22,09,32,15.60
2017,06,22,09,33,15.50
2017,06,22,09,34,15.50
2017,06,22,09,35,15.50
2017,06,22,09,36,15.60
2017,06,22,09,37,15.70
2017,06,22,09,38,15.80
2017,06,22,09,39,15.90
2017,06,22,09,40,15.90
2017,06,22,09,41,15.90
2017,06,22,09,42,16.00
2017,06,22,09,43,16.10
2017,06,22,09,44,16.10
2017,06,22,09,45,16.00
2017,06,22,09,46,16.00
2017,06,22,09,47,15.90
2017,06,22,09,48,15.90
2017,06,22,09,49,15.90
2017,06,22,09,50,15.90
2017,06,22,09,51,15.90
2017,06,22,09,52,15.90
2017,06,22,09,53,16.00
2017,06,22,09,54,16.00
2017,06,22,09,55,16.00
2017,06,22,09,56,15.90
2017,06,22,09,57,15.80
2017,06,22,09,58,15.80
2017,06,22,09,59,15.80
2017,06,22,10,00,15.80
2017,06,22,10,01,15.90
2017,06,22,10,02,16.00
2017,06,22,10,03,16.00
2017,06,22,10,04,16.10
2017,06,22,10,05,16.00
2017,06,22,10,06,16.00
2017,06,22,10,07,15.80
2017,06,22,10,08,15.80
2017,06,22,10,09,15.90
2017,06,22,10,10,15.90
2017,06,22,10,11,15.90
2017,06,22,10,12,16.00
2017,06,22,10,13,16.10
2017,06,22,10,14,16.10
2017,06,22,10,15,16.10
2017,06,22,10,16,16.20
2017,06,22,10,17,16.30
2017,06,22,10,18,16.30
2017,06,22,10,19,16.20
2017,06,22,10,20,16.10
2017,06,22,10,21,16.10
2017,06,22,10,22,16.20
2017,06,22,10,23,16.30
2017,06,22,10,24,16.40
2017,06,22,10,25,16.40
2017,06,22,10,26,16.30
2017,06,22,10,27,16.30
2017,06,22,10,28,16.30
2017,06,22,10,29,16.30
2017,06,22,10,30,16.30
2017,06,22,10,31,16.30
2017,06,22,10,32,16.30
2017,06,22,10,33,16.30
2017,06,22,10,34,16.40
2017,06,22,10,35,16.50
2017,06,22,10,36,16.60
2017,06,22,10,37,16.60
2017,06,22,10,38,16.60
2017,06,22,10,39,16.60
2017,06,22,10,40,16.50
2017,06,22,10,41,16.40
2017,06,22,10,42,16.30
2017,06,22,10,43,16.30
2017,06,22,10,44,16.40
2017,06,22,10,45,16.50
2017,06,22,10,46,16.50
2017,06,22,10,47,16.50
2017,06,22,10,48,16.50
2017,06,22,10,49,16.50
2017,06,22,10,50,16.40
2017,06,22,10,51,16.30
2017,06,22,10,52,16.30
2017,06,22,10,53,16.30
2017,06,22,10,54,16.30
2017,06,22,10,55,16.40
2017,06,22,10,56,16.50
2017,06,22,10,57,16.60
2017,06,22,10,58,16.70
2017,06,22,10,59,16.90
2017,06,22,11,00,16.90
2017,06,22,11,01,16.90
2017,06,22,11,02,16.90
2017,06,22,11,03,16.60
2017,06,22,11,04,16.40
2017,06,22,11,05,16.40
2017,06,22,11,06,16.40
2017,06,22,11,07,16.40
2017,06,22,11,08,16.30
2017,06,22,11,09,16.30
2017,06,22,11,10,16.30
2017,06,22,11,11,16.30
2017,06,22,11,12,16.30
2017,06,22,11,13,16.40
2017,06,22,11,14,16.50
2017,06,22,11,15,16.70
2017,06,22,11,16,17.00
2017,06,22,11,17,17.20
2017,06,22,11,18,17.20
2017,06,22,11,19,17.20
2017,06,22,11,20,17.30
2017,06,22,11,21,17.40
2017,06,22,11,22,17.40
2017,06,22,11,23,17.40
2017,06,22,11,24,17.30
2017,06,22,11,25,17.20
2017,06,22,11,26,17.20
2017,06,22,11,27,17.20
2017,06,22,11,28,17.20
2017,06,22,11,29,17.20
2017,06,22,11,30,17.30
2017,06,22,11,31,17.30
2017,06,22,11,32,17.40
2017,06,22,11,33,17.40
2017,06,22,11,34,17.40
2017,06,22,11,35,17.30
2017,06,22,11,36,17.20
2017,06,22,11,37,17.20
2017,06,22,11,38,17.20
2017,06,22,11,39,17.20
2017,06,22,11,40,17.20
2017,06,22,11,41,17.30
2017,06,22,11,42,17.20
2017,06,22,11,43,17.00
2017,06,22,11,44,16.90
2017,06,22,11,45,16.80
2017,06,22,11,46,16.70
2017,06,22,11,47,16.60
2017,06,22,11,48,16.70
2017,06,22,11,49,16.70
2017,06,22,11,50,16.70
2017,06,22,11,51,16.70
2017,06,22,11,52,16.70
2017,06,22,11,53,16.70
2017,06,22,11,54,16.70
2017,06,22,11,55,16.60
2017,06,22,11,56,16.60
2017,06,22,11,57,16.60
2017,06,22,11,58,16.60
2017,06,22,11,59,16.60
2017,06,22,12,00,16.60
2017,06,22,12,01,16.70
2017,06,22,12,02,16.80
2017,06,22,12,03,17.00
2017,06,22,12,04,17.10
2017,06,22,12,05,17.20
2017,06,22,12,06,17.20
2017,06,22,12,07,17.00
2017,06,22,12,08,16.80
2017,06,22,12,09,16.60
2017,06,22,12,10,16.50
2017,06,22,12,11,16.40
2017,06,22,12,12,16.40
2017,06,22,12,13,16.50
2017,06,22,12,14,16.50
2017,06,22,12,15,16.60
2017,06,22,12,16,16.60
2017,06,22,12,17,16.70
2017,06,22,12,18,16.70
2017,06,22,12,19,16.70
2017,06,22,12,20,16.50
2017,06,22,12,21,16.50
2017,06,22,12,22,16.50
2017,06,22,12,23,16.60
2017,06,22,12,24,16.70
2017,06,22,12,25,16.90
2017,06,22,12,26,17.20
2017,06,22,12,27,17.40
2017,06,22,12,28,17.50
2017,06,22,12,29,17.70
2017,06,22,12,30,17.80
2017,06,22,12,31,17.80
2017,06,22,12,32,17.80
2017,06,22,12,33,17.80
2017,06,22,12,34,17.80
2017,06,22,12,35,17.80
2017,06,22,12,36,17.80
2017,06,22,12,37,17.80
2017,06,22,12,38,17.80
2017,06,22,12,39,17.90
2017,06,22,12,40,18.00
2017,06,22,12,41,18.00
2017,06,22,12,42,18.00
2017,06,22,12,43,18.00
2017,06,22,12,44,18.00
2017,06,22,12,45,18.10
2017,06,22,12,46,18.30
2017,06,22,12,47,18.50
2017,06,22,12,48,18.60
2017,06,22,12,49,18.50
2017,06,22,12,50,18.50
2017,06,22,12,51,18.60
2017,06,22,12,52,18.60
2017,06,22,12,53,18.60
2017,06,22,12,54,18.50
2017,06,22,12,55,18.40
2017,06,22,12,56,18.10
2017,06,22,12,57,17.90
2017,06,22,12,58,17.90
2017,06,22,12,59,18.00
2017,06,22,13,00,18.10
2017,06,22,13,01,18.00
2017,06,22,13,02,17.90
2017,06,22,13,03,17.90
2017,06,22,13,04,18.00
2017,06,22,13,05,18.00
2017,06,22,13,06,18.10
2017,06,22,13,07,18.20
2017,06,22,13,08,18.30
2017,06,22,13,09,18.30
2017,06,22,13,10,18.20
2017,06,22,13,11,18.20
2017,06,22,13,12,18.30
2017,06,22,13,13,18.40
2017,06,22,13,14,18.40
2017,06,22,13,15,18.30
2017,06,22,13,16,18.30
2017,06,22,13,17,18.40
2017,06,22,13,18,18.40
2017,06,22,13,19,18.40
2017,06,22,13,20,18.50
2017,06,22,13,21,18.50
2017,06,22,13,22,18.60
2017,06,22,13,23,18.60
2017,06,22,13,24,18.60
2017,06,22,13,25,18.60
2017,06,22,13,26,18.50
2017,06,22,13,27,18.50
2017,06,22,13,28,18.50
2017,06,22,13,29,18.40
2017,06,22,13,30,18.40
2017,06,22,13,31,18.50
2017,06,22,13,32,18.60
2017,06,22,13,33,18.70
2017,06,22,13,34,18.80
2017,06,22,13,35,18.80
2017,06,22,13,36,18.80
2017,06,22,13,37,18.70
2017,06,22,13,38,18.50
2017,06,22,13,39,18.50
2017,06,22,13,40,18.40
2017,06,22,13,41,18.40
2017,06,22,13,42,18.50
2017,06,22,13,43,18.60
2017,06,22,13,44,18.80
2017,06,22,13,45,19.00
2017,06,22,13,46,19.00
2017,06,22,13,47,19.10
2017,06,22,13,48,19.10
2017,06,22,13,49,19.10
2017,06,22,13,50,19.20
2017,06,22,13,51,19.20
2017,06,22,13,52,19.20
2017,06,22,13,53,19.10
2017,06,22,13,54,19.00
2017,06,22,13,55,19.00
2017,06,22,13,56,19.00
2017,06,22,13,57,18.90
2017,06,22,13,58,18.80
2017,06,22,13,59,18.70
2017,06,22,14,00,18.70
2017,06,22,14,01,18.70
2017,06,22,14,02,18.70
2017,06,22,14,03,18.70
2017,06,22,14,04,18.80
2017,06,22,14,05,18.80
2017,06,22,14,06,18.70
2017,06,22,14,07,18.80
2017,06,22,14,08,18.90
2017,06,22,14,09,19.00
2017,06,22,14,10,19.10
2017,06,22,14,11,19.10
2017,06,22,14,12,19.20
2017,06,22,14,13,19.30
2017,06,22,14,14,19.40
2017,06,22,14,15,19.30
2017,06,22,14,16,19.20
2017,06,22,14,17,19.30
2017,06,22,14,18,19.40
2017,06,22,14,19,19.40
2017,06,22,14,20,19.40
2017,06,22,14,21,19.40
2017,06,22,14,22,19.30
2017,06,22,14,23,19.30
2017,06,22,14,24,19.50
2017,06,22,14,25,19.60
2017,06,22,14,26,19.60
2017,06,22,14,27,19.60
2017,06,22,14,28,19.50
2017,06,22,14,29,19.40
2017,06,22,14,30,19.40
2017,06,22,14,31,19.40
2017,06,22,14,32,19.40
2017,06,22,14,33,19.30
2017,06,22,14,34,19.20
2017,06,22,14,35,19.10
2017,06,22,14,36,19.00
2017,06,22,14,37,19.10
2017,06,22,14,38,19.20
2017,06,22,14,39,19.30
2017,06,22,14,40,19.30
2017,06,22,14,41,19.50
2017,06,22,14,42,19.70
2017,06,22,14,43,19.80
2017,06,22,14,44,19.90
2017,06,22,14,45,19.90
2017,06,22,14,46,19.70
2017,06,22,14,47,19.60
2017,06,22,14,48,19.40
2017,06,22,14,49,19.30
2017,06,22,14,50,19.40
2017,06,22,14,51,19.50
2017,06,22,14,52,19.50
2017,06,22,14,53,19.50
2017,06,22,14,54,19.60
2017,06,22,14,55,19.70
2017,06,22,14,56,19.80
2017,06,22,14,57,19.90
2017,06,22,14,58,20.00
2017,06,22,14,59,20.10
2017,06,22,15,00,20.10
2017,06,22,15,01,20.10
2017,06,22,15,02,20.20
2017,06,22,15,03,20.20
2017,06,22,15,04,20.20
2017,06,22,15,05,20.00
2017,06,22,15,06,19.90
2017,06,22,15,07,19.90
2017,06,22,15,08,19.90
2017,06,22,15,09,19.90
2017,06,22,15,10,20.00
2017,06,22,15,11,20.00
2017,06,22,15,12,19.90
2017,06,22,15,13,20.00
2017,06,22,15,14,20.10
2017,06,22,15,15,20.20
2017,06,22,15,16,20.10
2017,06,22,15,17,20.10
2017,06,22,15,18,20.10
2017,06,22,15,19,20.00
2017,06,22,15,20,19.90
2017,06,22,15,21,20.00
2017,06,22,15,22,20.10
2017,06,22,15,23,20.10
2017,06,22,15,24,20.20
2017,06,22,15,25,20.20
2017,06,22,15,26,20.30
2017,06,22,15,27,20.30
2017,06,22,15,28,20.30
2017,06,22,15,29,20.30
2017,06,22,15,30,20.30
2017,06,22,15,31,20.40
2017,06,22,15,32,20.50
2017,06,22,15,33,20.50
2017,06,22,15,34,20.40
2017,06,22,15,35,20.50
2017,06,22,15,36,20.50
2017,06,22,15,37,20.60
2017,06,22,15,38,20.60
2017,06,22,15,39,20.70
2017,06,22,15,40,20.70
2017,06,22,15,41,20.70
2017,06,22,15,42,20.80
2017,06,22,15,43,20.80
2017,06,22,15,44,20.70
2017,06,22,15,45,20.60
2017,06,22,15,46,20.60
2017,06,22,15,47,20.50
2017,06,22,15,48,20.40
2017,06,22,15,49,20.30
2017,06,22,15,50,20.20
2017,06,22,15,51,20.30
2017,06,22,15,52,20.40
2017,06,22,15,53,20.60
2017,06,22,15,54,20.70
2017,06,22,15,55,20.70
2017,06,22,15,56,20.70
2017,06,22,15,57,20.70
2017,06,22,15,58,20.60
2017,06,22,15,59,20.60
2017,06,22,16,00,20.60
2017,06,22,16,01,20.70
2017,06,22,16,02,20.70
2017,06,22,16,03,20.70
2017,06,22,16,04,20.60
2017,06,22,16,05,20.50
2017,06,22,16,06,20.40
2017,06,22,16,07,20.40
2017,06,22,16,08,20.40
2017,06,22,16,09,20.40
2017,06,22,16,10,20.50
2017,06,22,16,11,20.60
2017,06,22,16,12,20.60
2017,06,22,16,13,20.70
2017,06,22,16,14,20.70
2017,06,22,16,15,20.80
2017,06,22,16,16,20.90
2017,06,22,16,17,20.90
2017,06,22,16,18,20.80
2017,06,22,16,19,20.90
2017,06,22,16,20,21.00
2017,06,22,16,21,21.10
2017,06,22,16,22,21.10
2017,06,22,16,23,21.20
2017,06,22,16,24,21.20
2017,06,22,16,25,21.00
2017,06,22,16,26,20.90
2017,06,22,16,27,20.90
2017,06,22,16,28,20.90
2017,06,22,16,29,20.80
2017,06,22,16,30,20.80
2017,06,22,16,31,20.80
2017,06,22,16,32,20.90
2017,06,22,16,33,21.10
2017,06,22,16,34,21.20
2017,06,22,16,35,21.20
2017,06,22,16,36,21.20
2017,06,22,16,37,21.10
2017,06,22,16,38,21.10
2017,06,22,16,39,21.20
2017,06,22,16,40,21.20
2017,06,22,16,41,21.30
2017,06,22,16,42,21.40
2017,06,22,16,43,21.40
2017,06,22,16,44,21.30
2017,06,22,16,45,21.30
2017,06,22,16,46,21.20
2017,06,22,16,47,21.20
2017,06,22,16,48,21.10
2017,06,22,16,49,21.20
2017,06,22,16,50,21.30
2017,06,22,16,51,21.30
2017,06,22,16,52,21.20
2017,06,22,16,53,21.10
2017,06,22,16,54,21.10
2017,06,22,16,55,21.10
2017,06,22,16,56,21.00
2017,06,22,16,57,21.00
2017,06,22,16,58,21.00
2017,06,22,16,59,21.00
2017,06,22,17,00,21.10
2017,06,22,17,01,21.10
2017,06,22,17,02,21.00
2017,06,22,17,03,21.00
2017,06,22,17,04,21.10
2017,06,22,17,05,21.10
2017,06,22,17,06,21.10
2017,06,22,17,07,21.10
2017,06,22,17,08,21.00
2017,06,22,17,09,21.00
2017,06,22,17,10,21.00
2017,06,22,17,11,21.10
2017,06,22,17,12,21.20
2017,06,22,17,13,21.30
2017,06,22,17,14,21.30
2017,06,22,17,15,21.20
2017,06,22,17,16,21.20
2017,06,22,17,17,21.20
2017,06,22,17,18,21.20
2017,06,22,17,19,21.20